World of Logs combat log analyzer allows gamers to save, share and analyze their raiding experiences conveniently and thoroughly in the Blizzard MMO World of Warcraft. If you're new here, make sure you check out the tour for a 1 minute introduction. If you have any questions, we're happy to answer them on the forums.

DPS HPS
Odyn
Helya
Guarm
Reports for Shannox - statistics
# Date Time Damage DPS Guild Realm
1 03 May 2012 00:39 10.43M 265088.4 Dysfunction US-Stormreaver
2 09 Oct 2011 00:44 3.04M 68639.2 The Only Escape EU-Kel'Thuzad
3 16 Aug 2012 00:48 13.27M 274153.6 Ravenfails Finest US-Ravencrest
4 26 Apr 2012 00:48 3.64M 75149.0 Dick Loving Butt Pirates US-Area 52
5 22 Mar 2012 01:07 20.00M 298165.5 Kult der Schattenflamme EU-Der Rat von Dalaran
6 25 Apr 2012 01:08 31.46M 458149.1 Predicted EU-Festung der Stürme
7 29 Apr 2012 01:08 30.68M 446730.3 Conspire EU-Chamber of Aspects
8 13 Feb 2018 01:08 37.80M 548878.2 testguildpleaseignore EU-Tirion
9 25 Jul 2012 01:09 37.09M 534187.3 Conspire EU-Chamber of Aspects
10 25 Jul 2012 01:10 37.03M 527767.2 Kill it Please US-Frostmourne
11 20 Aug 2012 01:10 35.56M 502966.8 ЛАйтовые Логи EU-Борейская тундра
12 11 Mar 2018 01:11 38.18M 537747.6 testguildpleaseignore EU-Tirion
13 23 Aug 2012 01:11 34.03M 476272.6 14 EU-Ревущий фьорд
14 20 Mar 2012 01:11 27.91M 389148.9 Contingency US-Alexstrasza
15 09 Aug 2012 01:11 17.91M 249626.6 blissqt US-Zul'jin
16 15 Aug 2012 01:12 34.41M 473272.8 DepthCore EU-Ysondre
17 05 Mar 2018 01:12 38.40M 528057.2 testguildpleaseignore EU-Tirion
18 30 Mar 2012 01:13 32.37M 442739.2 Onionilog EU-Stormreaver
19 20 Mar 2018 01:13 37.69M 512005.6 testguildpleaseignore EU-Tirion
20 28 Jul 2012 01:13 29.99M 406351.2 У нас есть план EU-Борейская тундра
21 13 Feb 2018 01:13 38.49M 520712.5 testguildpleaseignore EU-Tirion
22 19 Jul 2012 01:13 33.79M 457053.1 may be better EU-Разувий
23 08 May 2012 01:14 36.61M 492883.3 Void US-Laughing Skull
24 11 Jul 2012 01:14 37.22M 501017.7 ScrubBusters EU-The Maelstrom
25 11 Jul 2012 01:14 37.22M 501010.9 ScrubBusters EU-The Maelstrom
26 03 Jun 2012 01:14 33.85M 455695.4 Vital US-Uldaman
27 22 Aug 2012 01:14 36.84M 494402.4 Kill it Please US-Frostmourne
28 11 Apr 2012 01:14 30.94M 414285.8 Predicted EU-Festung der Stürme
29 27 Feb 2018 01:14 40.13M 536383.5 testguildpleaseignore EU-Tirion
30 27 Feb 2018 01:14 40.13M 536383.5 testguildpleaseignore EU-Tirion
31 19 Jul 2012 01:15 36.71M 488963.7 Sheldan EU-Ревущий фьорд
32 30 Jul 2012 01:15 35.88M 476745.7 Korona EU-Malfurion
33 19 Jul 2012 01:15 36.73M 487277.6 Taurro@Ashenvale EU-Ясеневый лес
34 19 Jul 2012 01:15 36.73M 487277.6 Taurro@Ashenvale EU-Ясеневый лес
35 02 Aug 2012 01:15 33.59M 442648.6 Casual EU-Frostwolf
36 14 Jun 2012 01:15 35.56M 468141.5 Созвездие EU-Вечная Песня
37 23 May 2012 01:16 32.72M 429337.3 Epic Peons US-Hellscream
38 16 Apr 2012 01:16 34.74M 455549.1 Conspire EU-Chamber of Aspects
39 15 Feb 2012 01:16 37.49M 491501.7 Энерджайзер EU-Страж Смерти
40 30 Mar 2012 01:16 32.61M 425281.3 ScrubBusters EU-The Maelstrom
41 01 Aug 2012 01:16 34.54M 450379.3 Exhaustion US-Deathwing
42 08 Aug 2012 01:16 32.95M 429327.7 organised confusion EU-Anetheron
43 24 Jul 2012 01:16 19.20M 249488.7 Quantum Force US-Illidan
44 16 Jul 2012 01:17 36.11M 468371.9 genuine EU-Blackrock
45 23 Aug 2012 01:17 34.94M 453221.2 Aurora EU-Stormrage
46 12 Apr 2012 01:17 36.01M 465054.1 Безумное здравомыслие EU-Ревущий фьорд
47 10 Jul 2012 01:17 36.37M 469673.5 13 f cali US-Zul'jin
48 01 Aug 2012 01:17 38.73M 499542.5 Kill it Please US-Frostmourne
49 02 May 2012 01:18 34.92M 447403.6 Freak me Out EU-Arak-arahm
50 21 Aug 2012 01:18 31.96M 408609.0 Verdict US-Shandris
51 12 Aug 2012 01:18 31.64M 404122.0 Афинята EU-Свежеватель Душ
52 18 Apr 2012 01:18 32.99M 421362.3 Conspire EU-Chamber of Aspects
53 27 Jan 2012 01:18 30.99M 395793.8 Uzum (Интервенция) EU-Разувий
54 16 Jun 2012 01:18 35.24M 448572.1 Tears of Abaddon 2T EU-Eredar
55 04 Apr 2012 01:18 16.15M 205201.5 Pwnanza EU-Kazzak
56 24 Apr 2012 01:18 33.46M 425017.9 Kinetic US-Frostmane
57 29 Jul 2012 01:18 37.25M 471742.1 Duality US-Zul'jin
58 19 Feb 2018 01:19 38.49M 487107.1 testguildpleaseignore EU-Tirion
59 15 Apr 2012 01:19 35.98M 455182.9 303030 EU-Al'Akir
60 03 Apr 2012 01:19 32.20M 407037.5 Moonzlinge EU-Azshara
61 06 Jan 2018 01:19 35.84M 451773.4 testguildpleaseignore EU-Tirion
62 23 Apr 2012 01:19 38.12M 480422.9 Void US-Laughing Skull
63 19 Jul 2012 01:19 31.82M 400402.2 HadeAndKo EU-Подземье
64 21 Apr 2012 01:19 30.85M 386838.6 тентакли старого Джо EU-Борейская тундра
65 01 Feb 2012 01:19 35.84M 449381.2 Superbia EU-Kazzak
66 11 Jul 2012 01:19 34.77M 435694.2 Insomnie EU-Elune
67 26 Jun 2012 01:19 34.59M 433211.5 Stimulate US-Mug'thol
68 12 Apr 2012 01:20 34.94M 436150.4 Agnostics EU-Ravencrest
69 18 Jul 2012 01:20 37.14M 463138.0 Depraved EU-Twilight's Hammer
70 18 Jul 2012 01:20 37.14M 462584.3 Decev's Logs EU-Stormreaver
71 18 Jun 2012 01:20 34.74M 432075.8 Логи дяди Дили EU-Ревущий фьорд
72 06 Feb 2012 01:20 30.97M 384505.1 Slashcry EU-Kazzak
73 15 Jul 2012 01:20 35.02M 433818.0 Vital US-Uldaman
74 16 Feb 2012 01:20 33.51M 414376.9 Last One - Core Vermelho US-Azralon
75 15 Apr 2012 01:20 35.11M 433576.7 Фрюшка Druid Balance EU-Гордунни
76 15 Apr 2012 01:20 35.11M 433576.7 Фрюшка Druid Balance EU-Гордунни
77 24 Mar 2018 01:21 37.92M 466791.5 testguildpleaseignore EU-Tirion
78 30 Jul 2012 01:21 33.23M 407845.1 Боцбоц EU-Свежеватель Душ
79 30 Jul 2012 01:21 33.23M 407830.0 Cubozao logs EU-Ревущий фьорд
80 08 Jul 2012 01:21 36.23M 444525.6 Vital US-Uldaman
81 02 Aug 2012 01:21 39.49M 484385.9 Martin's WOL EU-Sargeras
82 11 Mar 2012 01:21 33.28M 407422.9 Decimation EU-Dun Modr
83 08 Apr 2012 01:21 35.49M 433723.1 Crimson Blade US-Frostmourne
84 21 Aug 2012 01:21 31.18M 380930.1 Логи дяди Дили EU-Ревущий фьорд
85 30 Jul 2012 01:22 36.28M 442072.6 Hexus EU-Dun Modr
86 20 Aug 2012 01:22 34.97M 424153.1 Korona EU-Malfurion
87 22 Aug 2012 01:22 31.23M 378416.9 TLA EU-Drak'thul
88 12 Jul 2012 01:22 37.20M 450655.6 vodjka's logs EU-Ясеневый лес
89 27 Jun 2012 01:22 38.43M 465285.5 Fierce US-Bleeding Hollow
90 24 Mar 2012 01:22 31.24M 377995.0 ScrubBusters EU-The Maelstrom
91 06 Jun 2012 01:22 34.60M 418345.5 The Feral Aggressors US-Bronzebeard
92 15 Mar 2012 01:22 35.91M 433081.7 Fixed US-Blackrock
93 14 Aug 2012 01:23 40.37M 486320.9 Panda Town US-Illidan
94 19 Mar 2018 01:23 39.49M 475675.2 testguildpleaseignore EU-Tirion
95 26 Jul 2012 01:23 33.89M 408012.2 Gordita EU-Свежеватель Душ
96 25 Apr 2012 01:23 36.75M 442330.3 Crimson Blade US-Frostmourne
97 12 Mar 2012 01:23 37.56M 451838.4 Just try EU-Гордунни
98 25 Aug 2012 01:23 34.99M 420964.5 ameno EU-Illidan
99 25 Aug 2012 01:23 34.99M 420797.4 péon EU-Illidan
100 16 Mar 2012 01:23 35.05M 420859.4 Believe it or not EU-Eredar

Please do not close the page with the ad you want to report.

I've posted a guide on how to report misbehaving ads on the forum. Please follow the instructions and help make the internet a safer place. Thanks for you time.